TimeCDT,TemperatureF,Dew PointF,Humidity,Sea Level PressureIn,VisibilityMPH,Wind Direction,Wind SpeedMPH,Gust SpeedMPH,PrecipitationIn,Events,Conditions,WindDirDegrees,DateUTC
12:15 AM,46.4,28.4,50,30.31,10.0,NNW,8.1,-,N/A,,Overcast,340,2012-10-12 05:15:00
12:35 AM,46.4,25.2,43,30.32,10.0,North,12.7,19.6,N/A,,Overcast,350,2012-10-12 05:35:00
12:55 AM,45.1,22.8,41,30.34,10.0,North,11.5,18.4,N/A,,Overcast,360,2012-10-12 05:55:00
1:15 AM,45.0,21.9,40,30.34,10.0,North,8.1,-,N/A,,Overcast,360,2012-10-12 06:15:00
1:35 AM,44.6,22.1,41,30.36,10.0,North,9.2,-,N/A,,Overcast,360,2012-10-12 06:35:00
1:55 AM,44.6,21.2,39,30.36,10.0,North,13.8,-,N/A,,Overcast,360,2012-10-12 06:55:00
2:15 AM,43.7,21.9,42,30.37,10.0,North,12.7,17.3,N/A,,Overcast,350,2012-10-12 07:15:00
2:35 AM,42.8,22.5,45,30.37,10.0,North,9.2,-,N/A,,Scattered Clouds,360,2012-10-12 07:35:00
2:55 AM,41.2,22.8,48,30.38,10.0,North,6.9,-,N/A,,Scattered Clouds,360,2012-10-12 07:55:00
3:15 AM,38.7,22.8,53,30.38,10.0,North,4.6,-,N/A,,Clear,350,2012-10-12 08:15:00
3:35 AM,38.7,23.7,55,30.39,10.0,North,4.6,-,N/A,,Clear,350,2012-10-12 08:35:00
3:55 AM,37.4,23.5,57,30.39,10.0,North,4.6,-,N/A,,Clear,350,2012-10-12 08:55:00
4:15 AM,36.1,23.5,60,30.39,10.0,North,3.5,-,N/A,,Clear,350,2012-10-12 09:15:00
4:35 AM,34.9,23.0,62,30.40,10.0,Calm,Calm,-,N/A,,Clear,0,2012-10-12 09:35:00
4:55 AM,33.8,23.0,65,30.40,10.0,North,4.6,-,N/A,,Clear,350,2012-10-12 09:55:00
5:15 AM,33.8,23.9,67,30.41,10.0,North,5.8,-,N/A,,Clear,350,2012-10-12 10:15:00
5:35 AM,33.8,23.7,67,30.41,10.0,North,4.6,-,N/A,,Clear,350,2012-10-12 10:35:00
5:55 AM,33.8,24.8,70,30.41,10.0,North,5.8,-,N/A,,Clear,360,2012-10-12 10:55:00
6:15 AM,33.8,24.8,70,30.42,10.0,North,3.5,-,N/A,,Clear,360,2012-10-12 11:15:00
6:35 AM,33.8,24.4,69,30.42,10.0,Calm,Calm,-,N/A,,Clear,0,2012-10-12 11:35:00
6:55 AM,32.4,24.4,73,30.43,10.0,North,3.5,-,N/A,,Clear,350,2012-10-12 11:55:00
7:15 AM,31.5,23.7,73,30.43,10.0,Calm,Calm,-,N/A,,Clear,0,2012-10-12 12:15:00
7:35 AM,30.0,23.2,76,30.45,10.0,Calm,Calm,-,N/A,,Clear,0,2012-10-12 12:35:00
7:55 AM,30.2,23.9,77,30.45,10.0,Calm,Calm,-,N/A,,Clear,0,2012-10-12 12:55:00
8:15 AM,33.8,26.1,73,30.46,10.0,Calm,Calm,-,N/A,,Clear,0,2012-10-12 13:15:00
8:35 AM,35.2,26.8,71,30.46,10.0,North,3.5,-,N/A,,Clear,10,2012-10-12 13:35:00
8:55 AM,39.2,28.4,65,30.46,10.0,NE,4.6,-,N/A,,Clear,40,2012-10-12 13:55:00
9:15 AM,38.7,27.9,65,30.47,10.0,NE,8.1,-,N/A,,Clear,50,2012-10-12 14:15:00
9:35 AM,41.2,27.7,59,30.46,10.0,NE,8.1,-,N/A,,Clear,50,2012-10-12 14:35:00
9:55 AM,41.2,26.6,56,30.47,10.0,ENE,9.2,-,N/A,,Clear,60,2012-10-12 14:55:00
10:15 AM,43.7,26.6,51,30.47,10.0,ENE,9.2,-,N/A,,Clear,60,2012-10-12 15:15:00
10:35 AM,44.6,24.6,45,30.48,10.0,ENE,10.4,-,N/A,,Clear,60,2012-10-12 15:35:00
10:55 AM,46.4,24.8,43,30.47,10.0,East,8.1,-,N/A,,Clear,80,2012-10-12 15:55:00
11:15 AM,46.4,23.0,40,30.48,10.0,ENE,9.2,-,N/A,,Clear,60,2012-10-12 16:15:00
11:35 AM,46.4,19.4,34,30.47,10.0,ENE,9.2,-,N/A,,Clear,70,2012-10-12 16:35:00
11:55 AM,48.9,19.6,31,30.46,10.0,East,10.4,-,N/A,,Clear,100,2012-10-12 16:55:00
12:15 PM,51.4,18.1,27,30.46,10.0,ENE,10.4,16.1,N/A,,Clear,70,2012-10-12 17:15:00
12:35 PM,51.6,18.0,27,30.45,10.0,SE,4.6,-,N/A,,Clear,130,2012-10-12 17:35:00
12:55 PM,52.7,17.2,25,30.44,10.0,East,4.6,-,N/A,,Clear,90,2012-10-12 17:55:00
1:35 PM,54.0,20.1,27,30.42,10.0,East,4.6,-,N/A,,Clear,100,2012-10-12 18:35:00
1:55 PM,53.6,21.2,28,30.41,10.0,East,6.9,-,N/A,,Clear,100,2012-10-12 18:55:00
2:15 PM,54.0,22.3,29,30.40,10.0,East,4.6,17.3,N/A,,Clear,100,2012-10-12 19:15:00
2:35 PM,54.0,21.7,29,30.39,10.0,East,9.2,-,N/A,,Clear,100,2012-10-12 19:35:00
2:55 PM,53.6,24.8,33,30.38,10.0,East,11.5,-,N/A,,Clear,90,2012-10-12 19:55:00
3:15 PM,54.1,22.6,29,30.38,10.0,East,5.8,-,N/A,,Clear,100,2012-10-12 20:15:00
3:35 PM,55.8,22.8,28,30.36,10.0,South,9.2,-,N/A,,Clear,180,2012-10-12 20:35:00
3:55 PM,54.9,22.5,28,30.36,10.0,SE,9.2,-,N/A,,Clear,130,2012-10-12 20:55:00
4:15 PM,55.4,21.2,26,30.36,10.0,SSE,8.1,-,N/A,,Clear,150,2012-10-12 21:15:00
4:35 PM,55.4,21.0,26,30.35,10.0,SSE,10.4,-,N/A,,Clear,150,2012-10-12 21:35:00
4:55 PM,55.4,21.0,26,30.34,10.0,ESE,8.1,-,N/A,,Clear,120,2012-10-12 21:55:00
5:15 PM,54.5,21.6,28,30.34,10.0,SSE,6.9,-,N/A,,Clear,150,2012-10-12 22:15:00
5:55 PM,54.0,26.4,35,30.33,10.0,SE,6.9,-,N/A,,Clear,130,2012-10-12 22:55:00
6:15 PM,49.1,23.9,37,30.32,10.0,SE,4.6,-,N/A,,Clear,140,2012-10-12 23:15:00
6:35 PM,46.4,24.1,42,30.32,10.0,SE,5.8,-,N/A,,Clear,140,2012-10-12 23:35:00
6:55 PM,42.1,25.2,51,30.32,10.0,ESE,4.6,-,N/A,,Clear,120,2012-10-12 23:55:00
7:15 PM,43.7,27.7,53,30.31,10.0,SE,4.6,-,N/A,,Clear,130,2012-10-13 00:15:00
7:35 PM,41.0,26.8,57,30.31,10.0,ESE,3.5,-,N/A,,Clear,120,2012-10-13 00:35:00
7:55 PM,40.8,27.9,60,30.31,10.0,ESE,4.6,-,N/A,,Clear,110,2012-10-13 00:55:00
8:15 PM,38.7,28.0,66,30.30,10.0,ESE,5.8,-,N/A,,Clear,110,2012-10-13 01:15:00
8:35 PM,38.7,28.0,66,30.28,10.0,East,8.1,-,N/A,,Clear,100,2012-10-13 01:35:00
8:55 PM,39.2,28.4,65,30.28,10.0,East,8.1,-,N/A,,Clear,100,2012-10-13 01:55:00
9:15 PM,38.7,29.7,70,30.27,10.0,East,8.1,-,N/A,,Clear,90,2012-10-13 02:15:00
9:35 PM,38.7,29.7,70,30.27,10.0,East,9.2,-,N/A,,Clear,100,2012-10-13 02:35:00
9:55 PM,41.0,32.0,70,30.27,10.0,East,9.2,-,N/A,,Clear,90,2012-10-13 02:55:00
10:15 PM,41.2,31.8,69,30.27,10.0,East,6.9,-,N/A,,Clear,100,2012-10-13 03:15:00
10:35 PM,42.1,32.0,67,30.26,10.0,East,6.9,-,N/A,,Clear,100,2012-10-13 03:35:00
10:55 PM,45.0,32.5,62,30.26,10.0,ESE,11.5,-,N/A,,Clear,110,2012-10-13 03:55:00
11:15 PM,45.5,32.2,60,30.26,10.0,ESE,8.1,-,N/A,,Clear,110,2012-10-13 04:15:00
11:35 PM,45.3,32.2,60,30.26,10.0,ESE,8.1,-,N/A,,Clear,110,2012-10-13 04:35:00
11:55 PM,46.4,32.0,57,30.25,10.0,ESE,6.9,-,N/A,,Mostly Cloudy,110,2012-10-13 04:55:00